Location: Newark
(41.6500°N, 71.4833°W)
Time: 05:32:42
(UTC+00:00)

A-11 Canister half - Pass Details

Date: 25 January 2020
Orbit: 1517 x 1683 km, 47.2° (Epoch: 19 February)

Event Time Altitude Azimuth Distance (km) Brightness Sun altitude
Rises 04:36:33 0° 237° (WSW) 4,745 - -67.0°
Reaches altitude 10° 04:39:39 10° 237° (WSW) 3,742 - -67.1°
Maximum altitude 04:49:05 83° 151° (SSE) 1,542 - -67.4°
Drops below altitude 10° 04:58:22 10° 65° (ENE) 3,681 - -67.4°
Sets 05:01:23 0° 65° (ENE) 4,665 - -67.4°
